{"data":{"norad_id":39509,"epoch":"2026-05-25T03:55:23.729376Z","epoch_age_seconds":57010,"freshness":"FRESH","line1":"1 39509U 14006B   26145.16346909  .00000000  00000+0  00000+0 0  9991","line2":"2 39509   0.0224  60.8497 0001610   9.4361 269.1096  1.00271681 44851","mean_motion":1.00271681,"eccentricity":0.000161,"inclination_deg":0.0224,"raan_deg":60.8497,"arg_perigee_deg":9.4361,"mean_anomaly_deg":269.1096,"bstar":0,"rev_number":4485,"period_min":1436.0983935235,"perigee_km":35779.835589651,"apogee_km":35793.412642731,"semimajor_km":42164.761116191,"source":"CELESTRAK","updated_at":"2026-05-25T13:38:13.948602Z"}}